Home   Weather   St. Albert   Past weeks

Flag for Canada Past Weather in St. Albert, Alberta, Canada — Yesterday and Last 2 Weeks

Now
76 °F

Mild.


Feels Like: 78 °F
Forecast: 59 / 77 °F
Wind: 12 mph from Southeast

Location: Edmonton Municipal

Current Time: Aug 30, 2016 at 6:34:01 PM

Latest Report: Aug 30, 2016 at 5:00 PM


Visibility: N/A

Pressure: 30.06 "Hg (27.88 "Hg at 653m altitude)

Humidity: 43%

Dew Point: 51 °F

Location of St. AlbertLocation

Past Weather in St. Albert — Graph

°F

St. Albert Temperature Yesterday

Maximum temperature yesterday: 67 °F (at 3:00 PM)
Minimum temperature yesterday: 42 °F (at 6:00 AM)
Average temperature yesterday: 55 °F

High & Low Weather Summary for the Past Weeks

 TemperatureHumidityPressure
High81 °F (Aug 16, 4:00 PM)100% (Aug 22, 1:00 PM)30.32 "Hg (Aug 22, 1:00 PM)
Low42 °F (Aug 29, 6:00 AM)27% (Aug 17, 3:00 PM)29.40 "Hg (Aug 22, 1:00 PM)
Average60 °F69%29.99 "Hg
* Reported Aug 15 5:00 PM — Aug 30 5:00 PM, St. Albert, Weather by CustomWeather, © 2016

Note: Actual official high and low records may vary slightly from our data, if they occured in-between our weather recording intervals... More about our weather records

Advertising

St. Albert Weather History for the Previous 24 Hours

Scroll right to see more
 ConditionsComfort  
Time TempWeatherWind HumidityBarometerVisibility
5:00 PM
Tue, Aug 30
76 °FMild.12 mph43%30.06 "HgN/A
4:00 PM74 °FMild.16 mph43%30.08 "HgN/A
3:00 PM74 °FMild.16 mph44%30.09 "HgN/A
2:00 PM71 °FMild.14 mph46%30.10 "HgN/A
1:00 PM69 °FMild.13 mph51%30.12 "HgN/A
12:00 PM66 °FMild.13 mph53%30.14 "HgN/A
11:00 AM63 °FMild.13 mph57%30.16 "HgN/A
10:00 AM59 °FCool.12 mph63%30.16 "HgN/A
9:00 AM56 °FCool.10 mph68%30.16 "HgN/A
8:00 AM53 °FCool.8 mph73%30.17 "HgN/A
7:00 AM52 °FCool.7 mph74%30.15 "HgN/A
6:00 AM49 °FCool.6 mph85%30.15 "HgN/A
5:00 AM52 °FCool.8 mph75%30.16 "HgN/A
4:00 AM54 °FCool.8 mph71%30.18 "HgN/A
3:00 AM55 °FCool.9 mph67%30.18 "HgN/A
2:00 AM55 °FCool.10 mph67%30.18 "HgN/A
1:00 AM56 °FCool.9 mph66%30.17 "HgN/A
12:00 AM56 °FCool.9 mph67%30.18 "HgN/A
11:00 PM
Mon, Aug 29
56 °FCool.8 mph72%30.19 "HgN/A
10:00 PM57 °FCool.7 mph66%30.19 "HgN/A
9:00 PM60 °FCool.8 mph64%30.18 "HgN/A
8:00 PM62 °FRefreshingly cool.9 mph58%30.16 "HgN/A
7:00 PM65 °FMild.10 mph52%30.17 "HgN/A
6:00 PM66 °FMild.10 mph51%30.18 "HgN/A
Weather by CustomWeather, © 2016

See weather overviewHow to use our weather pages